To NAV CANADA Home Page Login to a new session Search on AWWS site Feedback and Comments Disclaimer Vers la page française équivalente Tips FAQ What's new on the site To the Forecasts and Observations / NOTAM section To "File a Flight Plan" website Publications and other links Update of the User's profile FIC Telephone Numbers My Weather Data Folder Route Weather Data Regional Weather Data Local Weather Data To the Forecasts and Observations / NOTAM section
Request Generated 10/17/2017 at 01:49:38 UTC . Weather information available at that time is displayed.

METAR/TAF

NAIN/NL    

LWIS CYDP 170100Z AUTO 23009G15KT 01/M03 A2971=
LWIS CYDP 170000Z AUTO 26005KT 240V320 02/M03 A2969=
METAR CYDP 162300Z 29006KT 15SM FEW100 02/M03 A2968 RMK AC1 LAST
STAFFED OB/ NEXT 170800 SLP053=

*** REMARK        : Forecast period has ended; this was the last TAF issued
*** REMARQUE : La période de prévision est échue; ceci était le dernier TAF qui a été émis
TAF CYDP 161939Z 1620/1623 28015G25KT P6SM FEW030 TEMPO 1620/1623
BKN030
RMK NXT FCST WILL BE ISSUED AT 170945Z=
Your time UTC time
Weather data provided by Environment Canada and NAV CANADA